Погода в Трутневе

Россия / Псковская область     58°37′05″N   27°56′26″E
темп.,
°C
ветер,
м/с
пор.,
м/с
влажн.,
%
обл.,
%
осадки,
мм/ч
давл.,
гПа
погр.,
м
17 апреля, сб
сб1700:00+7всв4136257 0.0 1026461
03:00+5всв4127279 0.0 1026378
06:00+4св4117759 0.0 1026326
09:00+8всв5116239 0.0 1026478
12:00+14всв584995 0.0 1026916
15:00+16всв5746100 0.0 10261288
18:00+15всв474864 0.0 10251219
21:00+10св3105852 0.0 1026276
18 апреля, вс
вс1800:00+7св4126981 0.0 1027366
03:00+6св411795 0.0 1027308
06:00+4св411863 0.0 1027298
09:00+8всв59640 0.0 1027520
12:00+13всв57430 0.0 10271281
15:00+14всв57351 0.0 10261755
18:00+14всв47415 0.0 10261964
21:00+8св38615 0.0 1027166
19 апреля, пн
пн1900:00+7св310725 0.0 1028261
03:00+5всв39842 0.0 1028195
06:00+4всв310880 0.0 1028242
09:00+8всв47685 0.0 1028491
12:00+12всв46505 0.0 10271404
15:00+14всв454171 0.0 10261974
18:00+13в454491 0.0 10251872
21:00+8в266470 0.0 1025128
20 апреля, вт
вт2000:00+8в3868100 0.0 1025416
03:00+4всв378512 0.0 1024162
06:00+5всв3780100 0.0 1023299
09:00+7в3772100 0.0 1022587
12:00+7в5669100 0.0 10211004
15:00+7в4572100 0.1 10191063
18:00+8вюв2559100 0.0 10171312
21:00+5ссз2573100 0.0 101589
21 апреля, ср
ср2100:00+4св2581100 0.0 101193
03:00+4ссв3788100 0.0 1008566
06:00+3ссв3897100 1.3 1004590
09:00+3с3797100 4.6 1002459
12:00+3сз2497100 1.6 1001447
15:00+2зсз4799100 2.1 1000313
18:00+2зсз3899100 0.4 1001304
21:00+2зюз249898 0.4 1002199